JST478 YSCB-YSSY

Flight info

Callsign JST478
Flight time 0h 29m
Altitude 17000
Route CB W423 CULIN Y59 RIVET
Aircraft A20N/M-SDE2E3FGHIRWXY/LB1

Departure

Time 2026-04-25 10:25
Airport Canberra Airport (YSCB)

Arrival

Time 2026-04-25 10:54
Airport Sydney Kingsford Smith International Airport (YSSY)
Time Latitude Longitude Altitude Speed Heading
2026-04-25 10:06 -35.30855 149.19134 1878 ft 0 kts 291°
2026-04-25 10:17 -35.30859 149.19146 1881 ft 2 kts 289°
2026-04-25 10:17 -35.30865 149.19165 1876 ft 2 kts 288°
2026-04-25 10:18 -35.30869 149.19184 1882 ft 2 kts 285°
2026-04-25 10:18 -35.30873 149.19204 1880 ft 2 kts 279°
2026-04-25 10:18 -35.30874 149.19224 1875 ft 2 kts 254°
2026-04-25 10:18 -35.30865 149.19238 1877 ft 2 kts 188°
2026-04-25 10:19 -35.30860 149.19239 1876 ft 0 kts 182°
2026-04-25 10:21 -35.30877 149.19239 1876 ft 9 kts 180°
2026-04-25 10:21 -35.31016 149.19240 1878 ft 28 kts 180°
2026-04-25 10:21 -35.31238 149.19239 1875 ft 34 kts 180°
2026-04-25 10:22 -35.31484 149.19240 1873 ft 30 kts 180°
2026-04-25 10:22 -35.31697 149.19240 1874 ft 32 kts 179°
2026-04-25 10:22 -35.31897 149.19239 1878 ft 22 kts 179°
2026-04-25 10:22 -35.32002 149.19317 1881 ft 9 kts 112°
2026-04-25 10:23 -35.32002 149.19320 1881 ft 0 kts 109°
2026-04-25 10:24 -35.32006 149.19333 1881 ft 7 kts 108°
2026-04-25 10:24 -35.31993 149.19430 1876 ft 15 kts 40°
2026-04-25 10:24 -35.31870 149.19446 1878 ft 23 kts 359°
2026-04-25 10:25 -35.31518 149.19444 1874 ft 79 kts
2026-04-25 10:25 -35.30732 149.19445 1884 ft 149 kts
2026-04-25 10:25 -35.29568 149.19432 2318 ft 179 kts 355°
2026-04-25 10:25 -35.28298 149.19460 3224 ft 184 kts
2026-04-25 10:26 -35.26988 149.19684 4011 ft 199 kts
2026-04-25 10:26 -35.25512 149.19898 4576 ft 227 kts
2026-04-25 10:26 -35.23858 149.20128 5302 ft 250 kts
2026-04-25 10:26 -35.22084 149.20353 6087 ft 267 kts
2026-04-25 10:27 -35.20194 149.20575 7010 ft 273 kts
2026-04-25 10:27 -35.18301 149.20791 8061 ft 275 kts
2026-04-25 10:27 -35.16373 149.21006 9018 ft 281 kts
2026-04-25 10:27 -35.14391 149.21221 9829 ft 288 kts
2026-04-25 10:28 -35.12369 149.21463 10606 ft 301 kts
2026-04-25 10:28 -35.10272 149.22063 10978 ft 325 kts 18°
2026-04-25 10:28 -35.08096 149.23081 11464 ft 341 kts 21°
2026-04-25 10:28 -35.05870 149.24150 12323 ft 345 kts 21°
2026-04-25 10:29 -35.03613 149.25221 13193 ft 350 kts 20°
2026-04-25 10:29 -35.01328 149.26295 14052 ft 354 kts 20°
2026-04-25 10:29 -34.99012 149.27378 14826 ft 358 kts 20°
2026-04-25 10:29 -34.96671 149.28470 15600 ft 362 kts 20°
2026-04-25 10:30 -34.94306 149.29571 16350 ft 366 kts 20°
2026-04-25 10:30 -34.91908 149.30687 17018 ft 370 kts 21°
2026-04-25 10:30 -34.89492 149.31812 17289 ft 372 kts 21°
2026-04-25 10:30 -34.87097 149.32931 17366 ft 373 kts 21°
2026-04-25 10:31 -34.84676 149.34061 17375 ft 373 kts 21°
2026-04-25 10:31 -34.82178 149.35225 17381 ft 396 kts 21°
2026-04-25 10:31 -34.79528 149.36457 17378 ft 419 kts 21°
2026-04-25 10:31 -34.76835 149.37948 17380 ft 424 kts 30°
2026-04-25 10:32 -34.74516 149.40007 17378 ft 402 kts 42°
2026-04-25 10:32 -34.72684 149.42457 17380 ft 381 kts 53°
2026-04-25 10:32 -34.71334 149.45129 17379 ft 366 kts 62°
2026-04-25 10:32 -34.70121 149.47947 17384 ft 388 kts 62°
2026-04-25 10:33 -34.68844 149.50883 17381 ft 399 kts 62°
2026-04-25 10:33 -34.67514 149.53925 17383 ft 408 kts 62°
2026-04-25 10:33 -34.66231 149.56859 17381 ft 388 kts 62°
2026-04-25 10:33 -34.64996 149.59678 17383 ft 369 kts 62°
2026-04-25 10:34 -34.63789 149.62431 17386 ft 371 kts 62°
2026-04-25 10:34 -34.62569 149.65211 17384 ft 374 kts 62°
2026-04-25 10:34 -34.61346 149.67997 17383 ft 371 kts 62°
2026-04-25 10:34 -34.60128 149.70771 17390 ft 371 kts 62°
2026-04-25 10:35 -34.58926 149.73507 17390 ft 372 kts 62°
2026-04-25 10:35 -34.57675 149.76353 17387 ft 394 kts 62°
2026-04-25 10:35 -34.56348 149.79372 17388 ft 416 kts 62°
2026-04-25 10:35 -34.54952 149.82544 17383 ft 432 kts 62°
2026-04-25 10:36 -34.53545 149.85736 17383 ft 419 kts 62°
2026-04-25 10:36 -34.52207 149.88770 17381 ft 396 kts 62°
2026-04-25 10:36 -34.50951 149.91613 17382 ft 376 kts 62°
2026-04-25 10:36 -34.49743 149.94347 17381 ft 364 kts 62°
2026-04-25 10:37 -34.48530 149.97090 17380 ft 373 kts 62°
2026-04-25 10:37 -34.47305 149.99857 17382 ft 371 kts 62°
2026-04-25 10:37 -34.46084 150.02614 17381 ft 371 kts 62°
2026-04-25 10:37 -34.44862 150.05370 17384 ft 371 kts 62°
2026-04-25 10:38 -34.43654 150.08093 17387 ft 371 kts 62°
2026-04-25 10:38 -34.42430 150.10852 17388 ft 371 kts 62°
2026-04-25 10:38 -34.41206 150.13606 17383 ft 371 kts 62°
2026-04-25 10:38 -34.39979 150.16366 17386 ft 371 kts 62°
2026-04-25 10:39 -34.38754 150.19118 17381 ft 371 kts 62°
2026-04-25 10:39 -34.37534 150.21857 17381 ft 370 kts 62°
2026-04-25 10:39 -34.36306 150.24611 17381 ft 371 kts 62°
2026-04-25 10:39 -34.35079 150.27362 17369 ft 371 kts 62°
2026-04-25 10:40 -34.33864 150.30083 17157 ft 371 kts 62°
2026-04-25 10:40 -34.32637 150.32828 16902 ft 369 kts 62°
2026-04-25 10:40 -34.31422 150.35545 16650 ft 366 kts 62°
2026-04-25 10:40 -34.30620 150.37339 16477 ft 366 kts 62°
2026-04-25 10:41 -34.29000 150.40957 16152 ft 365 kts 62°
2026-04-25 10:41 -34.27794 150.43651 15907 ft 363 kts 62°
2026-04-25 10:41 -34.26594 150.46334 15662 ft 362 kts 62°
2026-04-25 10:41 -34.25400 150.49006 15420 ft 361 kts 62°
2026-04-25 10:42 -34.24207 150.51673 15175 ft 360 kts 62°
2026-04-25 10:42 -34.23025 150.54313 14630 ft 363 kts 62°
2026-04-25 10:42 -34.21817 150.57010 13985 ft 364 kts 62°
2026-04-25 10:42 -34.20609 150.59705 13350 ft 363 kts 62°
2026-04-25 10:43 -34.19409 150.62378 12733 ft 361 kts 62°
2026-04-25 10:43 -34.18214 150.65036 12115 ft 359 kts 62°
2026-04-25 10:43 -34.17040 150.67647 11510 ft 357 kts 62°
2026-04-25 10:43 -34.15856 150.70278 10887 ft 355 kts 62°
2026-04-25 10:44 -34.14676 150.72900 10325 ft 352 kts 62°
2026-04-25 10:44 -34.13530 150.75445 10136 ft 337 kts 62°
2026-04-25 10:44 -34.12432 150.77880 10001 ft 322 kts 62°
2026-04-25 10:44 -34.11611 150.80317 9842 ft 307 kts 80°
2026-04-25 10:45 -34.11608 150.82814 9725 ft 292 kts 99°
2026-04-25 10:45 -34.11942 150.85177 9385 ft 287 kts 99°
2026-04-25 10:45 -34.12280 150.87549 8953 ft 286 kts 99°
2026-04-25 10:45 -34.12619 150.89949 8232 ft 295 kts 99°
2026-04-25 10:46 -34.12957 150.92364 7795 ft 287 kts 99°
2026-04-25 10:46 -34.13284 150.94718 7442 ft 283 kts 99°
2026-04-25 10:46 -34.13615 150.97103 6733 ft 293 kts 99°
2026-04-25 10:46 -34.13953 150.99548 6284 ft 292 kts 99°
2026-04-25 10:47 -34.14280 151.01918 6126 ft 280 kts 99°
2026-04-25 10:47 -34.14597 151.04221 5771 ft 277 kts 99°
2026-04-25 10:47 -34.14913 151.06504 5236 ft 281 kts 98°
2026-04-25 10:47 -34.15238 151.08867 4618 ft 287 kts 98°
2026-04-25 10:48 -34.15568 151.11271 3937 ft 294 kts 98°
2026-04-25 10:48 -34.15907 151.13743 3320 ft 299 kts 97°
2026-04-25 10:48 -34.16247 151.16194 3070 ft 289 kts 97°
2026-04-25 10:48 -34.16402 151.18527 2994 ft 269 kts 80°
2026-04-25 10:49 -34.15776 151.20532 2986 ft 247 kts 52°
2026-04-25 10:49 -34.14992 151.21465 2988 ft 233 kts 32°
2026-04-25 10:49 -34.13048 151.22171 2982 ft 214 kts
2026-04-25 10:49 -34.11614 151.22051 2973 ft 200 kts 353°
2026-04-25 10:50 -34.10273 151.21756 2782 ft 194 kts 350°
2026-04-25 10:50 -34.08962 151.21405 2535 ft 191 kts 349°
2026-04-25 10:50 -34.07696 151.21070 2297 ft 182 kts 351°
2026-04-25 10:50 -34.06483 151.20748 2045 ft 174 kts 350°
2026-04-25 10:51 -34.05325 151.20441 1805 ft 165 kts 351°
2026-04-25 10:51 -34.04256 151.20157 1590 ft 153 kts 351°
2026-04-25 10:51 -34.03275 151.19895 1405 ft 136 kts 353°
2026-04-25 10:51 -34.02393 151.19661 1221 ft 123 kts 352°
2026-04-25 10:52 -34.01576 151.19447 1073 ft 122 kts 353°
2026-04-25 10:52 -34.00740 151.19226 900 ft 119 kts 352°
2026-04-25 10:52 -33.99958 151.19018 769 ft 116 kts 352°
2026-04-25 10:52 -33.99163 151.18810 600 ft 118 kts 351°
2026-04-25 10:53 -33.98353 151.18591 428 ft 119 kts 349°
2026-04-25 10:53 -33.97549 151.18367 329 ft 120 kts 348°
2026-04-25 10:53 -33.96738 151.18143 155 ft 121 kts 348°
2026-04-25 10:53 -33.95924 151.17932 24 ft 115 kts 348°
2026-04-25 10:54 -33.95318 151.17777 23 ft 62 kts 348°
2026-04-25 10:54 -33.94990 151.17693 20 ft 79 kts 348°
2026-04-25 10:54 -33.94436 151.17548 25 ft 52 kts 347°
2026-04-25 10:54 -33.94138 151.17470 21 ft 33 kts 347°
2026-04-25 10:55 -33.93958 151.17427 17 ft 12 kts
2026-04-25 10:55 -33.93909 151.17499 20 ft 12 kts 76°
2026-04-25 10:55 -33.93879 151.17623 18 ft 20 kts 73°
2026-04-25 10:55 -33.93833 151.17764 21 ft 15 kts 38°
2026-04-25 10:56 -33.93741 151.17793 28 ft 12 kts 10°
2026-04-25 10:56 -33.93663 151.17810 30 ft 12 kts
2026-04-25 10:56 -33.93578 151.17818 30 ft 9 kts 330°
2026-04-25 10:56 -33.93564 151.17762 30 ft 5 kts 281°